This is the latest recevied weather packets stored in our database for station/object F5ZQC-13. If no packets are shown the sender has not sent any weather packets the latest 1 day(s).
| Time | Temp. | Humidity | Pressure | Rain* | Wind** | Luminosity | Snow |
|---|---|---|---|---|---|---|---|
| 1777982870 | 19.44° C | 38% | 1009.2 hPa | 0 mm | 1.34 m/s, 337° | - | - |
| 1777982625 | 19.44° C | 38% | 1009.3 hPa | 0 mm | 1.34 m/s, 337° | - | - |
| 1777982503 | 18.89° C | 39% | 1009.3 hPa | 0 mm | 1.34 m/s, 337° | - | - |
| 1777982381 | 18.89° C | 39% | 1009.3 hPa | 0 mm | 2.24 m/s, 337° | - | - |
| 1777982259 | 18.89° C | 39% | 1009.3 hPa | 0 mm | 1.34 m/s, 337° | - | - |
| 1777982137 | 18.89° C | 40% | 1009.4 hPa | 0 mm | 2.24 m/s, 337° | - | - |
| 1777981893 | 18.33° C | 40% | 1009.4 hPa | 0 mm | 2.68 m/s, 337° | - | - |
| 1777981770 | 18.33° C | 40% | 1009.4 hPa | 0 mm | 1.34 m/s, 281° | - | - |
| 1777981525 | 18.33° C | 39% | 1009.5 hPa | 0 mm | 0.89 m/s, 337° | - | - |
| 1777981402 | 18.33° C | 40% | 1009.5 hPa | 0 mm | 1.79 m/s, 337° | - | - |
| 1777981280 | 18.33° C | 40% | 1009.6 hPa | 0 mm | 1.79 m/s, 337° | - | - |
| 1777981036 | 18.33° C | 40% | 1009.6 hPa | 0 mm | 1.79 m/s, 303° | - | - |
| 1777980791 | 18.33° C | 41% | 1009.7 hPa | 0 mm | 1.34 m/s, 315° | - | - |
| 1777980669 | 18.33° C | 40% | 1009.7 hPa | 0 mm | 0 m/s | - | - |
| 1777980547 | 18.33° C | 40% | 1009.8 hPa | 0 mm | 0.45 m/s, 315° | - | - |
| 1777980302 | 18.33° C | 40% | 1009.7 hPa | 0 mm | 0.89 m/s, 315° | - | - |
| 1777979936 | 18.33° C | 39% | 1009.8 hPa | 0 mm | 1.34 m/s, 292° | - | - |
| 1777979814 | 18.33° C | 38% | 1009.9 hPa | 0 mm | 1.34 m/s, 315° | - | - |
| 1777979814 | 18.33° C | 38% | 1009.9 hPa | 0 mm | 1.34 m/s, 315° | - | - |
| 1777979692 | 18.33° C | 39% | 1009.8 hPa | 0 mm | 1.79 m/s, 315° | - | - |
| 1777979692 | 18.33° C | 39% | 1009.8 hPa | 0 mm | 1.79 m/s, 315° | - | - |
| 1777979569 | 18.33° C | 40% | 1009.9 hPa | 0 mm | 0.89 m/s, 315° | - | - |
| 1777979446 | 18.33° C | 39% | 1009.9 hPa | 0 mm | 0.89 m/s, 315° | - | - |
| 1777979379 | 18.33° C | 39% | 1010 hPa | 0 mm | 0.45 m/s, 315° | - | - |
| 1777979324 | 18.33° C | 39% | 1010 hPa | 0 mm | 0.45 m/s, 315° | - | - |
* Rain since midnight (hover to see other rain measurements)
** Current wind speed in m/s (hover to see current wind gust speed)